Location: *
(40.7873°S, 98.7174°E)
Time: 10:14:05
(UTC+00:00)

NOSS 3-4 (C) - Pass Details

Date: 05 October 2022
Orbit: 836 x 1376 km, 63.4° (Epoch: 25 November)

Event Time Altitude Azimuth Distance (km) Brightness Sun altitude
Exits shadow 20:04:20 26° 239° (WSW) 2,371 5.3 -29.8°
Maximum altitude 20:06:17 28° 217° (SW) 2,238 5.3 -29.6°
Drops below altitude 10° 20:12:55 10° 159° (SSE) 3,206 6.9 -28.6°
Sets 20:16:05 0° 147° (SSE) 4,090 7.8 -28.1°
